TimeCEST,TemperatureF,Dew PointF,Humidity,Sea Level PressureIn,VisibilityMPH,Wind Direction,Wind SpeedMPH,Gust SpeedMPH,PrecipitationIn,Events,Conditions,WindDirDegrees,DateUTC
12:15 AM,71.6,64.4,78,30.04,6.2,ESE,18.4,-,N/A,,Scattered Clouds,110,2012-10-19 22:15:00
12:45 AM,73.4,64.4,73,30.04,6.2,ESE,18.4,-,N/A,,Scattered Clouds,110,2012-10-19 22:45:00
12:55 AM,73.4,64.4,73,30.04,6.2,ESE,18.4,-,N/A,,Scattered Clouds,110,2012-10-19 22:55:00
1:15 AM,73.4,64.4,73,30.04,6.2,ESE,18.4,-,N/A,,Scattered Clouds,120,2012-10-19 23:15:00
1:45 AM,73.4,64.4,73,30.04,6.2,ESE,20.7,-,N/A,,Scattered Clouds,110,2012-10-19 23:45:00
1:55 AM,73.4,64.4,73,30.04,6.2,ESE,20.7,-,N/A,,Scattered Clouds,110,2012-10-19 23:55:00
2:00 AM,73,65,69,30.05,6,ESE,20.7,,,,Mostly Cloudy,110,2012-10-20 00:00:00
2:15 AM,73.4,64.4,73,30.04,6.2,ESE,20.7,-,N/A,,Scattered Clouds,110,2012-10-20 00:15:00
2:45 AM,71.6,64.4,78,30.04,6.2,ESE,18.4,-,N/A,,Scattered Clouds,110,2012-10-20 00:45:00
2:55 AM,71.6,64.4,78,30.04,6.2,ESE,18.4,-,N/A,,Scattered Clouds,110,2012-10-20 00:55:00
3:15 AM,71.6,64.4,78,30.04,6.2,ESE,18.4,-,N/A,,Scattered Clouds,110,2012-10-20 01:15:00
3:45 AM,71.6,64.4,78,30.04,6.2,ESE,17.3,-,N/A,,Scattered Clouds,110,2012-10-20 01:45:00
3:55 AM,71.6,64.4,78,30.04,6.2,ESE,17.3,-,N/A,,Scattered Clouds,110,2012-10-20 01:55:00
4:15 AM,71.6,64.4,78,30.04,6.2,ESE,18.4,-,N/A,,Scattered Clouds,110,2012-10-20 02:15:00
4:45 AM,71.6,64.4,78,30.01,6.2,ESE,17.3,-,N/A,,Scattered Clouds,110,2012-10-20 02:45:00
4:55 AM,71.6,64.4,78,30.01,6.2,ESE,17.3,-,N/A,,Scattered Clouds,110,2012-10-20 02:55:00
5:00 AM,72,64,70,30.02,6,ESE,17.3,,,,Mostly Cloudy,110,2012-10-20 03:00:00
5:15 AM,71.6,64.4,78,30.01,6.2,ESE,17.3,-,N/A,,Scattered Clouds,110,2012-10-20 03:15:00
5:45 AM,71.6,64.4,78,30.01,6.2,ESE,16.1,-,N/A,,Scattered Clouds,110,2012-10-20 03:45:00
5:55 AM,71.6,64.4,78,30.01,6.2,ESE,16.1,-,N/A,,Scattered Clouds,110,2012-10-20 03:55:00
6:15 AM,71.6,64.4,78,30.01,6.2,ESE,16.1,-,N/A,,Scattered Clouds,110,2012-10-20 04:15:00
6:45 AM,71.6,64.4,78,30.04,6.2,ESE,17.3,-,N/A,,Scattered Clouds,120,2012-10-20 04:45:00
6:55 AM,71.6,64.4,78,30.01,6.2,ESE,17.3,-,N/A,,Scattered Clouds,120,2012-10-20 04:55:00
7:15 AM,71.6,64.4,78,30.01,6.2,ESE,17.3,-,N/A,,Scattered Clouds,120,2012-10-20 05:15:00
7:45 AM,73.4,62.6,69,30.01,6.2,ESE,18.4,-,N/A,,Scattered Clouds,120,2012-10-20 05:45:00
7:55 AM,73.4,62.6,69,30.01,6.2,ESE,18.4,-,N/A,,Scattered Clouds,120,2012-10-20 05:55:00
8:00 AM,73,62,61,30.03,6,ESE,18.4,,,,Mostly Cloudy,120,2012-10-20 06:00:00
8:15 AM,73.4,62.6,69,30.01,6.2,ESE,15.0,-,N/A,,Scattered Clouds,120,2012-10-20 06:15:00
8:45 AM,73.4,62.6,69,30.04,6.2,SE,16.1,-,N/A,,Scattered Clouds,130,2012-10-20 06:45:00
8:55 AM,73.4,62.6,69,30.04,6.2,SE,16.1,-,N/A,,Scattered Clouds,130,2012-10-20 06:55:00
9:15 AM,73.4,68.0,83,30.04,5.0,ESE,15.0,-,N/A,,Mostly Cloudy,120,2012-10-20 07:15:00
9:45 AM,73.4,69.8,88,30.04,6.2,ESE,18.4,-,N/A,,Mostly Cloudy,120,2012-10-20 07:45:00
9:55 AM,73.4,69.8,88,30.04,6.2,ESE,18.4,-,N/A,,Mostly Cloudy,120,2012-10-20 07:55:00
10:15 AM,73.4,68.0,83,30.04,6.2,ESE,17.3,-,N/A,,Scattered Clouds,120,2012-10-20 08:15:00
10:45 AM,73.4,68.0,83,30.04,6.2,ESE,19.6,-,N/A,,Mostly Cloudy,120,2012-10-20 08:45:00
10:55 AM,73.4,68.0,83,30.04,6.2,ESE,19.6,-,N/A,,Mostly Cloudy,120,2012-10-20 08:55:00
11:00 AM,73,67,78,30.06,5,ESE,19.6,,,,Mist,120,2012-10-20 09:00:00
11:15 AM,73.4,68.0,83,30.04,6.2,ESE,19.6,-,N/A,,Mostly Cloudy,120,2012-10-20 09:15:00
11:45 AM,73.4,69.8,88,30.04,6.2,ESE,15.0,-,N/A,,Mostly Cloudy,120,2012-10-20 09:45:00
11:55 AM,73.4,69.8,88,30.04,6.2,ESE,15.0,-,N/A,,Mostly Cloudy,120,2012-10-20 09:55:00
12:15 PM,75.2,68.0,78,30.04,6.2,ESE,17.3,-,N/A,,Mostly Cloudy,120,2012-10-20 10:15:00
12:45 PM,75.2,68.0,78,30.04,6.2,ESE,16.1,-,N/A,,Scattered Clouds,110,2012-10-20 10:45:00
12:55 PM,75.2,68.0,78,30.04,6.2,ESE,16.1,-,N/A,,Scattered Clouds,110,2012-10-20 10:55:00
1:15 PM,-9999,-9999,N/A,30.04,6.2,ESE,17.3,-,N/A,,Mostly Cloudy,110,2012-10-20 11:15:00
1:45 PM,77.0,69.8,78,30.01,6.2,ESE,17.3,-,N/A,,Scattered Clouds,110,2012-10-20 11:45:00
1:55 PM,77.0,69.8,78,30.01,6.2,ESE,17.3,-,N/A,,Scattered Clouds,110,2012-10-20 11:55:00
2:00 PM,77,69,71,30.02,6,ESE,17.3,,,,Partly Cloudy,110,2012-10-20 12:00:00
2:15 PM,77.0,68.0,74,30.01,6.2,ESE,16.1,-,N/A,,Scattered Clouds,120,2012-10-20 12:15:00
2:45 PM,77.0,68.0,74,30.01,6.2,ESE,16.1,-,N/A,,Scattered Clouds,110,2012-10-20 12:45:00
2:55 PM,77.0,68.0,74,30.01,6.2,ESE,16.1,-,N/A,,Scattered Clouds,110,2012-10-20 12:55:00
3:15 PM,77.0,68.0,74,30.01,6.2,ESE,17.3,-,N/A,,Scattered Clouds,110,2012-10-20 13:15:00
3:45 PM,77.0,68.0,74,29.98,6.2,ESE,20.7,-,N/A,,Scattered Clouds,110,2012-10-20 13:45:00
3:55 PM,77.0,68.0,74,29.98,6.2,ESE,20.7,-,N/A,,Scattered Clouds,110,2012-10-20 13:55:00
4:15 PM,75.2,66.2,73,29.98,6.2,ESE,20.7,-,N/A,,Scattered Clouds,110,2012-10-20 14:15:00
4:45 PM,75.2,68.0,78,29.98,6.2,ESE,18.4,-,N/A,,Mostly Cloudy,120,2012-10-20 14:45:00
4:55 PM,75.2,68.0,78,29.98,6.2,ESE,18.4,-,N/A,,Mostly Cloudy,120,2012-10-20 14:55:00
5:00 PM,75,68,74,29.99,6,ESE,18.4,,,,Mostly Cloudy,120,2012-10-20 15:00:00
5:15 PM,75.2,66.2,73,29.98,6.2,ESE,17.3,-,N/A,,Mostly Cloudy,110,2012-10-20 15:15:00
5:45 PM,73.4,68.0,83,29.98,6.2,ESE,18.4,-,N/A,,Mostly Cloudy,110,2012-10-20 15:45:00
5:55 PM,73.4,68.0,83,29.98,6.2,ESE,18.4,-,N/A,,Mostly Cloudy,110,2012-10-20 15:55:00
6:15 PM,73.4,66.2,78,30.01,6.2,ESE,16.1,-,N/A,,Mostly Cloudy,110,2012-10-20 16:15:00
6:45 PM,71.6,66.2,83,30.01,6.2,ESE,16.1,-,N/A,,Mostly Cloudy,120,2012-10-20 16:45:00
6:55 PM,71.6,66.2,83,30.01,6.2,ESE,16.1,-,N/A,,Mostly Cloudy,120,2012-10-20 16:55:00
7:15 PM,73.4,68.0,83,30.01,6.2,ESE,16.1,-,N/A,,Mostly Cloudy,110,2012-10-20 17:15:00
7:45 PM,73.4,68.0,83,30.01,6.2,ESE,15.0,-,N/A,,Mostly Cloudy,110,2012-10-20 17:45:00
7:55 PM,73.4,68.0,83,30.01,6.2,ESE,15.0,-,N/A,,Mostly Cloudy,110,2012-10-20 17:55:00
8:00 PM,73,69,82,30.02,6,ESE,15.0,,,,Mostly Cloudy,110,2012-10-20 18:00:00
8:15 PM,73.4,68.0,83,30.01,6.2,ESE,13.8,-,N/A,,Mostly Cloudy,120,2012-10-20 18:15:00
8:45 PM,73.4,69.8,88,30.01,6.2,ESE,18.4,-,N/A,,Mostly Cloudy,120,2012-10-20 18:45:00
8:55 PM,73.4,69.8,88,30.01,6.2,ESE,18.4,-,N/A,,Mostly Cloudy,120,2012-10-20 18:55:00
9:15 PM,73.4,69.8,88,30.01,6.2,ESE,18.4,-,N/A,,Scattered Clouds,110,2012-10-20 19:15:00
9:45 PM,73.4,69.8,88,30.01,6.2,ESE,18.4,-,N/A,,Scattered Clouds,120,2012-10-20 19:45:00
9:55 PM,73.4,69.8,88,30.01,6.2,ESE,18.4,-,N/A,,Scattered Clouds,120,2012-10-20 19:55:00
10:15 PM,73.4,69.8,88,30.01,6.2,ESE,16.1,-,N/A,,Scattered Clouds,120,2012-10-20 20:15:00
10:45 PM,73.4,69.8,88,30.01,6.2,ESE,16.1,-,N/A,,Mostly Cloudy,120,2012-10-20 20:45:00
10:55 PM,73.4,69.8,88,30.01,6.2,ESE,16.1,-,N/A,,Mostly Cloudy,120,2012-10-20 20:55:00
11:00 PM,73,71,90,30.02,5,ESE,16.1,,,,Mist,120,2012-10-20 21:00:00
11:15 PM,73.4,69.8,88,30.01,6.2,ESE,16.1,-,N/A,,Scattered Clouds,120,2012-10-20 21:15:00
11:45 PM,73.4,69.8,88,30.01,6.2,ESE,16.1,-,N/A,,Scattered Clouds,120,2012-10-20 21:45:00
11:55 PM,73.4,69.8,88,30.01,6.2,ESE,16.1,-,N/A,,Scattered Clouds,120,2012-10-20 21:55:00